Regional Weather Roundup
Issued by NWS

Home | Current Version | Previous Version | Graphics & Text | Print | Product List | Glossary On
Versions: 1 2 3 4 5 6 7 8 9 10 11 12 13 14 15 16 17 18 19 20 21 22 23 24 25 26 27 28 29 30 31 32 33 34 35 36 37 38 39 40 41 42 43 44 45 46 47 48 49 50
000
ASUS43 KLOT 230208
RWRIL

ILLINOIS REGIONAL WEATHER ROUNDUP
NATIONAL WEATHER SERVICE CHICAGO/ROMEOVILLE IL
900 PM CDT FRI JUL 22 2016

NOTE: "FAIR" INDICATES FEW OR NO CLOUDS BELOW 12,000 FEET WITH NO
SIGNIFICANT WEATHER AND/OR OBSTRUCTIONS TO VISIBILITY.

* THESE STATIONS ARE NOT UNDER NWS QUALITY CONTROL. THEY ALSO MAY NOT
  REPORT WEATHER SUCH AS PRECIPITATION OR FOG.

ILZ001-002-007-009-015-016-024-230300-
NORTHWEST ILLINOIS

CITY           SKY/WX    TMP DP  RH WIND       PRES   REMARKS
MOLINE         MOCLDY    82  77  84 SW3       29.98S HX  90
STERLING*      CLOUDY    80  78  94 CALM      29.99S HX  88
SAVANNA*       PTCLDY    81  76  86 CALM      29.97F HX  87
$$

ILZ003-004-008-010-011-017-018-230300-
NORTH CENTRAL ILLINOIS

CITY           SKY/WX    TMP DP  RH WIND       PRES   REMARKS
ROCKFORD       MOCLDY    84  76  76 CALM      29.99S HX  93
FREEPORT*      PTCLDY    79  75  89 SW3       30.00F HX  82
ROCHELLE*      CLOUDY    80  78  93 W5        30.00S HX  85
DE KALB*       CLEAR     81  76  86 W5        30.01S HX  87
$$

ILZ005-006-012>014-019>023-230300-
NORTHEAST ILLINOIS

CITY           SKY/WX    TMP DP  RH WIND       PRES   REMARKS
CHICAGO-OHARE  PTCLDY    86  75  69 NW6       29.97R HX  95
CHICAGO-MIDWAY MOCLDY    87  71  58 E8        29.97R HX  93
AURORA         CLEAR     80  77  90 W5        29.99R HX  87
LANSING*       CLEAR     81  74  80 SW5       29.98S HX  86
JOLIET*        CLEAR     82  78  88 CALM      29.99R HX  90
WAUKEGAN       CLEAR     79  72  79 CALM      29.96S HX  82
DUPAGE AIRPORT CLEAR     82  74  76 W3        29.98S HX  88
WHEELING       CLEAR     84  73  69 E5        29.98R HX  90
MORRIS*        CLEAR     78  76  93 CALM      29.98R HX  81
ROMEOVILLE*    CLEAR     80  74  81 W7        29.99R HX  84
NORTHERLY ISL    N/A     77  71  82 S2          N/A
$$

LMZ740>746-230300-
SOUTHERN LAKE MICHIGAN

STATION/POSITION SKY/WX   TEMP    WIND        PRES    VSBY  WAVE
                          AIR SEA DIR/SP/G                  HT/PER
                          (F)     (DEG/KT/KT) (MB)    (MI)  (FT/S)
SOUTHERN BUOY              74 74  160/  4/  6 1014.2R         0
WILMETTE HARBOR            77 75  190/  6/  8   N/A           0
HARRISON CRIB              78     190/  6/  7   N/A
BURNHAM HARBOR             77     160/  3/  3   N/A
CALUMET HARBOR             81                   N/A
BURNS HARBOR               83      70/  4/  4 1015.6
MICHIGAN CITY              83      CALM  /  1   N/A
MICHIGAN CITY 6N           80 77   90/  2/  4   N/A           1
ST. JOSEPH                 76 74   CALM  /  2 1014.9R         0
$$

ILZ025>027-034>036-040-047-049-050-058-095>099-230300-
WEST-CENTRAL ILLINOIS

CITY           SKY/WX    TMP DP  RH WIND       PRES   REMARKS
QUINCY         CLOUDY    82  77  84 S5        30.00S HX  90
GALESBURG*     PTCLDY    78  76  92 CALM      30.00S HX  82
MACOMB*        PTCLDY    78  76  94 S5        30.02S HX  82
JACKSONVILLE*  PTCLDY    80  76  87 CALM      30.01R HX  85
PITTSFIELD*    MOCLDY    80  78  94 CALM      30.03R HX  86
$$

ILZ028>032-037-038-041>044-048-051>054-059>061-230300-
CENTRAL ILLINOIS

CITY           SKY/WX    TMP DP  RH WIND       PRES   REMARKS
PONTIAC        CLEAR     80  78  94 CALM      30.01R HX  88
BLOOMINGTON    CLEAR     80  74  81 SW5       30.02S HX  85
DECATUR        CLEAR     82  74  76 SW3       30.01S HX  88
PEORIA         MOCLDY    83  77  82 SW5       30.00R HX  92
LACON*         PTCLDY    79  77  91 CALM      29.98S HX  84
LINCOLN*       CLEAR     80  76  87 CALM      30.00S HX  86
SPRINGFIELD    PTCLDY    81  74  79 S6        30.01R HX  86
TAYLORVILLE    CLEAR     78  76  95 CALM      30.01S
$$

ILZ033-039-045-046-055>057-062-063-230300-
EAST-CENTRAL ILLINOIS

CITY           SKY/WX    TMP DP  RH WIND       PRES   REMARKS
CHAMPAIGN      CLEAR     77  74  90 CALM      30.01F
MATTOON        CLEAR     79  72  79 CALM      30.00S HX  82
PARIS*         CLEAR     75  75 100 CALM      30.02S
$$

ILZ079-100>102-230300-
SOUTHWEST ILLINOIS

CITY           SKY/WX    TMP DP  RH WIND       PRES   REMARKS
BELLEVILLE     MOCLDY    78  77  99 W2        30.00S HX  80
CAHOKIA*       CLOUDY    80  74  81 CALM      30.00S HX  85
SPARTA*        CLOUDY    78  74  87 CALM      30.03R HX  81
$$

ILZ064>066-069>071-074>076-080>082-084>086-088>090-092>094-230300-
SOUTH-CENTRAL ILLINOIS

CITY           SKY/WX    TMP DP  RH WIND       PRES   REMARKS
CARBONDALE     CLOUDY    78  74  87 W3        30.01R HX  81
CAIRO*         CLOUDY    80  79  98 CALM      30.01R HX  86
EFFINGHAM*     CLEAR     77  76  99 CALM      30.02S
MARION         CLOUDY    81  77  89 CALM      30.02R HX  88
MT. VERNON     CLEAR     77  70  78 CALM      30.02R
CENTRALIA*     PTCLDY    78  76  92 CALM      30.00S HX  81
SALEM*         PTCLDY    78  75  91 CALM      30.01S
METROPOLIS*    CLOUDY    79  77  94 CALM      30.02R HX  83
$$

ILZ067-068-072-073-078-083-087-091-230300-
SOUTHEAST ILLINOIS

CITY           SKY/WX    TMP DP  RH WIND       PRES   REMARKS
LAWRENCEVILLE  CLEAR     80  77  90 CALM      30.01R HX  87
FLORA*         PTCLDY    79  76  90 CALM      30.01R HX  83
FAIRFIELD*     CLEAR     77  76  96 CALM      30.01R FOG
HARRISBURG*    MOCLDY    80  78  94 CALM      30.02R HX  86
ROBINSON*      CLEAR     77  76  96 CALM      30.02R
CARMI*         PTCLDY    79  78  97 CALM      30.00R HX  83
$$

ABBREVIATIONS USED IN REMARKS
   TC - TEMPERATURE IN CELSIUS
  WCI - WIND CHILL INDEX
   HX - HEAT INDEX
  VSB - VISIBILITY
$$





USA.gov is the U.S. government's official web portal to all federal, state and local government web resources and services.